CCA119D ZHHH-VMMC

Flight info

Callsign CCA119D
Flight time 1h 16m
Altitude 33100
Route OLMIB5E OLMIB W37 PEXID/K0839S1040 W37 OMBEB/K0837S1070 R473 NNX/K0839S1040 R473 NOLON W90 POU
Aircraft A320/M-SDE3FGHIRWY/LB1

Departure

Time 2026-04-28 02:14
Airport Wuhan Tianhe International Airport (ZHHH)

Arrival

Time 2026-04-28 03:30
Airport Macau International Airport (VMMC)
Time Latitude Longitude Altitude Speed Heading
2026-04-28 01:34 30.77844 114.21203 111 ft 0 kts 221°
2026-04-28 02:02 30.77854 114.21214 110 ft 4 kts 220°
2026-04-28 02:03 30.77874 114.21232 111 ft 4 kts 217°
2026-04-28 02:03 30.77895 114.21249 108 ft 4 kts 208°
2026-04-28 02:03 30.77918 114.21259 110 ft 4 kts 176°
2026-04-28 02:03 30.77931 114.21255 109 ft 0 kts 131°
2026-04-28 02:05 30.77925 114.21264 110 ft 8 kts 131°
2026-04-28 02:05 30.77853 114.21356 109 ft 17 kts 131°
2026-04-28 02:05 30.77781 114.21454 108 ft 17 kts 130°
2026-04-28 02:06 30.77708 114.21553 108 ft 16 kts 130°
2026-04-28 02:06 30.77625 114.21659 109 ft 20 kts 133°
2026-04-28 02:06 30.77531 114.21778 108 ft 20 kts 131°
2026-04-28 02:06 30.77444 114.21892 108 ft 18 kts 133°
2026-04-28 02:07 30.77367 114.21993 107 ft 17 kts 131°
2026-04-28 02:07 30.77291 114.22093 106 ft 16 kts 131°
2026-04-28 02:07 30.77222 114.22176 107 ft 14 kts 143°
2026-04-28 02:07 30.77146 114.22191 107 ft 10 kts 199°
2026-04-28 02:08 30.77064 114.22148 108 ft 13 kts 213°
2026-04-28 02:08 30.76997 114.22090 108 ft 11 kts 222°
2026-04-28 02:08 30.76902 114.21979 108 ft 25 kts 223°
2026-04-28 02:08 30.76773 114.21847 108 ft 24 kts 220°
2026-04-28 02:09 30.76652 114.21721 108 ft 27 kts 225°
2026-04-28 02:09 30.76511 114.21573 107 ft 27 kts 221°
2026-04-28 02:09 30.76373 114.21434 108 ft 26 kts 221°
2026-04-28 02:09 30.76235 114.21293 108 ft 25 kts 219°
2026-04-28 02:10 30.76110 114.21174 108 ft 23 kts 213°
2026-04-28 02:10 30.76018 114.21077 108 ft 17 kts 218°
2026-04-28 02:10 30.75943 114.21022 108 ft 10 kts 175°
2026-04-28 02:10 30.75916 114.21054 109 ft 4 kts 134°
2026-04-28 02:11 30.75913 114.21058 109 ft 1 kts 137°
2026-04-28 02:12 30.75872 114.21103 109 ft 8 kts 136°
2026-04-28 02:12 30.75849 114.21144 109 ft 5 kts 102°
2026-04-28 02:13 30.75867 114.21181 109 ft 14 kts 50°
2026-04-28 02:13 30.76079 114.21391 109 ft 72 kts 43°
2026-04-28 02:13 30.76597 114.21923 109 ft 125 kts 41°
2026-04-28 02:13 30.77361 114.22710 117 ft 167 kts 41°
2026-04-28 02:14 30.78135 114.23505 508 ft 174 kts 40°
2026-04-28 02:14 30.79019 114.24416 992 ft 187 kts 40°
2026-04-28 02:14 30.80028 114.25475 1445 ft 204 kts 43°
2026-04-28 02:14 30.81057 114.26590 1925 ft 224 kts 44°
2026-04-28 02:15 30.83364 114.29182 3060 ft 233 kts 44°
2026-04-28 02:15 30.84431 114.30586 3617 ft 236 kts 64°
2026-04-28 02:15 30.84657 114.32361 4172 ft 245 kts 98°
2026-04-28 02:16 30.83845 114.34111 4783 ft 260 kts 133°
2026-04-28 02:16 30.82321 114.35305 5423 ft 267 kts 144°
2026-04-28 02:16 30.80771 114.36508 6074 ft 266 kts 136°
2026-04-28 02:16 30.79431 114.37992 6683 ft 266 kts 129°
2026-04-28 02:17 30.78205 114.39612 7365 ft 271 kts 129°
2026-04-28 02:17 30.76986 114.41308 8167 ft 275 kts 128°
2026-04-28 02:17 30.75753 114.43023 8982 ft 279 kts 130°
2026-04-28 02:17 30.74271 114.44513 9758 ft 286 kts 154°
2026-04-28 02:18 30.72355 114.44931 10421 ft 289 kts 188°
2026-04-28 02:18 30.70498 114.44100 11179 ft 289 kts 216°
2026-04-28 02:18 30.68982 114.42546 11957 ft 292 kts 227°
2026-04-28 02:18 30.67685 114.40732 12731 ft 295 kts 239°
2026-04-28 02:19 30.66948 114.38523 13636 ft 294 kts 259°
2026-04-28 02:19 30.66990 114.36161 14421 ft 296 kts 282°
2026-04-28 02:19 30.67858 114.33972 15132 ft 305 kts 303°
2026-04-28 02:19 30.69481 114.32346 15929 ft 318 kts 327°
2026-04-28 02:20 30.71626 114.31541 16246 ft 345 kts 352°
2026-04-28 02:20 30.74078 114.31942 16392 ft 373 kts 20°
2026-04-28 02:20 30.76267 114.33649 16729 ft 389 kts 46°
2026-04-28 02:20 30.77689 114.36337 17200 ft 396 kts 72°
2026-04-28 02:21 30.78056 114.39491 17659 ft 396 kts 98°
2026-04-28 02:21 30.77305 114.42532 18134 ft 391 kts 124°
2026-04-28 02:21 30.75588 114.44894 18606 ft 380 kts 149°
2026-04-28 02:21 30.73339 114.46417 18929 ft 368 kts 163°
2026-04-28 02:22 30.70969 114.47126 19065 ft 351 kts 180°
2026-04-28 02:22 30.68492 114.46977 19312 ft 354 kts 197°
2026-04-28 02:22 30.66224 114.46006 19737 ft 353 kts 212°
2026-04-28 02:22 30.64263 114.44312 20223 ft 353 kts 227°
2026-04-28 02:23 30.62667 114.42139 20716 ft 355 kts 232°
2026-04-28 02:23 30.61077 114.39883 20914 ft 367 kts 232°
2026-04-28 02:23 30.59446 114.37576 21298 ft 373 kts 231°
2026-04-28 02:23 30.57793 114.35240 21765 ft 377 kts 231°
2026-04-28 02:24 30.56120 114.32875 22237 ft 380 kts 231°
2026-04-28 02:24 30.54433 114.30494 22696 ft 383 kts 231°
2026-04-28 02:24 30.52735 114.28105 23157 ft 385 kts 231°
2026-04-28 02:24 30.51047 114.25735 23580 ft 388 kts 231°
2026-04-28 02:25 30.49319 114.23309 23954 ft 391 kts 231°
2026-04-28 02:25 30.47585 114.20872 24335 ft 393 kts 231°
2026-04-28 02:25 30.45839 114.18419 24719 ft 395 kts 231°
2026-04-28 02:25 30.44061 114.15980 25097 ft 397 kts 227°
2026-04-28 02:26 30.42037 114.13777 25464 ft 400 kts 224°
2026-04-28 02:26 30.39959 114.11617 25832 ft 402 kts 224°
2026-04-28 02:26 30.37896 114.09485 26185 ft 404 kts 224°
2026-04-28 02:26 30.35796 114.07322 26544 ft 407 kts 224°
2026-04-28 02:27 30.33674 114.05139 26887 ft 409 kts 224°
2026-04-28 02:27 30.31527 114.02938 27231 ft 412 kts 222°
2026-04-28 02:27 30.29177 114.01012 27551 ft 418 kts 213°
2026-04-28 02:27 30.27070 113.99789 27836 ft 422 kts 208°
2026-04-28 02:28 30.24386 113.98359 28191 ft 424 kts 208°
2026-04-28 02:28 30.21694 113.96921 28530 ft 426 kts 208°
2026-04-28 02:28 30.19002 113.95479 28865 ft 429 kts 209°
2026-04-28 02:28 30.16287 113.94024 29190 ft 431 kts 209°
2026-04-28 02:29 30.13601 113.92587 29494 ft 433 kts 209°
2026-04-28 02:29 30.10859 113.91122 29798 ft 435 kts 209°
2026-04-28 02:29 30.08108 113.89655 30087 ft 437 kts 209°
2026-04-28 02:29 30.05344 113.88177 30332 ft 438 kts 210°
2026-04-28 02:30 30.02585 113.86703 30598 ft 439 kts 210°
2026-04-28 02:30 29.99799 113.85218 30902 ft 439 kts 210°
2026-04-28 02:30 29.97030 113.83747 31295 ft 437 kts 210°
2026-04-28 02:30 29.94318 113.82304 31668 ft 436 kts 210°
2026-04-28 02:31 29.91570 113.80840 32041 ft 434 kts 210°
2026-04-28 02:31 29.88799 113.79447 32416 ft 436 kts 205°
2026-04-28 02:31 29.85851 113.78526 32772 ft 442 kts 195°
2026-04-28 02:31 29.82774 113.78152 32991 ft 448 kts 190°
2026-04-28 02:32 29.79674 113.77934 33067 ft 443 kts 190°
2026-04-28 02:32 29.73618 113.77528 33071 ft 437 kts 190°
2026-04-28 02:33 29.67555 113.77114 33065 ft 436 kts 190°
2026-04-28 02:33 29.61513 113.76693 33063 ft 436 kts 190°
2026-04-28 02:34 29.55453 113.76272 33051 ft 435 kts 190°
2026-04-28 02:34 29.49406 113.75855 33047 ft 435 kts 190°
2026-04-28 02:35 29.43412 113.75433 33053 ft 434 kts 191°
2026-04-28 02:35 29.37378 113.75009 33048 ft 435 kts 190°
2026-04-28 02:36 29.31353 113.74602 33058 ft 433 kts 190°
2026-04-28 02:36 29.25340 113.74188 33045 ft 433 kts 190°
2026-04-28 02:37 29.19344 113.73990 33049 ft 436 kts 186°
2026-04-28 02:37 29.13262 113.74225 33046 ft 438 kts 184°
2026-04-28 02:38 29.07159 113.74531 33110 ft 438 kts 185°
2026-04-28 02:38 29.04113 113.74648 33368 ft 438 kts 185°
2026-04-28 02:38 29.01072 113.74743 33626 ft 438 kts 186°
2026-04-28 02:38 28.98013 113.74828 33885 ft 438 kts 186°
2026-04-28 02:39 28.95019 113.74905 34010 ft 437 kts 186°
2026-04-28 02:39 28.88978 113.75068 34042 ft 434 kts 186°
2026-04-28 02:40 28.82914 113.75236 33818 ft 435 kts 186°
2026-04-28 02:40 28.76850 113.75413 34061 ft 438 kts 186°
2026-04-28 02:41 28.74072 113.75482 34124 ft 441 kts 188°
2026-04-28 02:44 28.70081 113.75592 34117 ft 439 kts 188°
2026-04-28 02:44 28.63979 113.75111 34151 ft 438 kts 193°
2026-04-28 02:45 28.57944 113.74373 34011 ft 433 kts 192°
2026-04-28 02:45 28.47108 113.73491 34052 ft 442 kts 188°
2026-04-28 02:45 28.40895 113.74454 34039 ft 464 kts 171°
2026-04-28 02:46 28.34614 113.75818 34040 ft 459 kts 178°
2026-04-28 02:46 28.22088 113.77733 34018 ft 460 kts 176°
2026-04-28 02:47 28.09592 113.80387 34037 ft 456 kts 176°
2026-04-28 02:47 28.03411 113.80719 34050 ft 440 kts 188°
2026-04-28 02:47 27.97291 113.80640 34036 ft 445 kts 183°
2026-04-28 02:47 27.91260 113.82195 34036 ft 458 kts 170°
2026-04-28 02:48 27.84987 113.84211 34030 ft 458 kts 170°
2026-04-28 02:48 27.72787 113.87991 34030 ft 457 kts 171°
2026-04-28 02:49 27.60481 113.91642 34032 ft 458 kts 171°
2026-04-28 02:49 27.48156 113.95410 34009 ft 466 kts 160°
2026-04-28 02:50 27.36557 114.02072 34021 ft 467 kts 160°
2026-04-28 02:50 27.24809 114.08297 34028 ft 467 kts 160°
2026-04-28 02:51 27.13083 114.14481 34016 ft 469 kts 160°
2026-04-28 02:51 27.01267 114.20675 34021 ft 469 kts 160°
2026-04-28 02:51 26.95275 114.23398 33993 ft 455 kts 174°
2026-04-28 02:52 26.89174 114.23170 34021 ft 433 kts 199°
2026-04-28 02:52 26.77417 114.20013 34005 ft 435 kts 198°
2026-04-28 02:53 26.65710 114.16929 34008 ft 435 kts 198°
2026-04-28 02:53 26.54961 114.14079 34023 ft 436 kts 198°
2026-04-28 02:54 26.43143 114.10959 34024 ft 437 kts 198°
2026-04-28 02:54 26.31296 114.07840 34034 ft 437 kts 198°
2026-04-28 02:55 26.19551 114.04748 34045 ft 436 kts 198°
2026-04-28 02:55 26.09029 114.03112 34056 ft 444 kts 187°
2026-04-28 02:56 26.01589 114.02784 34054 ft 444 kts 187°
2026-04-28 02:56 25.89335 114.02217 34043 ft 445 kts 187°
2026-04-28 02:57 25.76956 114.01695 34055 ft 445 kts 187°
2026-04-28 02:57 25.68423 114.01329 34057 ft 444 kts 186°
2026-04-28 02:58 25.62261 114.01062 34050 ft 442 kts 186°
2026-04-28 02:58 25.56155 114.00800 34058 ft 442 kts 186°
2026-04-28 02:59 25.50007 114.00542 34054 ft 442 kts 186°
2026-04-28 02:59 25.43877 114.00275 34060 ft 442 kts 186°
2026-04-28 03:00 25.37725 114.00001 34058 ft 443 kts 186°
2026-04-28 03:00 25.31607 113.99737 34049 ft 443 kts 186°
2026-04-28 03:00 25.28584 113.99612 33479 ft 442 kts 186°
2026-04-28 03:01 25.25510 113.99484 32660 ft 444 kts 186°
2026-04-28 03:01 25.22438 113.99355 32293 ft 441 kts 186°
2026-04-28 03:01 25.19368 113.99227 32048 ft 440 kts 186°
2026-04-28 03:01 25.16317 113.99100 31801 ft 438 kts 186°
2026-04-28 03:02 25.13284 113.98973 31551 ft 435 kts 186°
2026-04-28 03:02 25.10261 113.98791 31295 ft 433 kts 192°
2026-04-28 03:02 25.07393 113.98050 30541 ft 426 kts 202°
2026-04-28 03:02 25.04590 113.96958 29183 ft 426 kts 202°
2026-04-28 03:03 25.01973 113.95916 27373 ft 440 kts 202°
2026-04-28 03:03 24.99061 113.94751 25466 ft 452 kts 202°
2026-04-28 03:03 24.96068 113.93560 23716 ft 461 kts 202°
2026-04-28 03:03 24.93054 113.92376 22147 ft 457 kts 201°
2026-04-28 03:04 24.90091 113.91224 20804 ft 449 kts 201°
2026-04-28 03:04 24.87167 113.90088 19572 ft 441 kts 201°
2026-04-28 03:04 24.84309 113.88976 18366 ft 432 kts 201°
2026-04-28 03:04 24.81532 113.87892 17125 ft 423 kts 201°
2026-04-28 03:05 24.78818 113.86833 15970 ft 414 kts 201°
2026-04-28 03:05 24.76104 113.85774 15135 ft 413 kts 201°
2026-04-28 03:05 24.72032 113.84192 14695 ft 394 kts 201°
2026-04-28 03:05 24.67033 113.82255 14242 ft 369 kts 201°
2026-04-28 03:06 24.62396 113.80452 13761 ft 350 kts 201°
2026-04-28 03:06 24.57969 113.78730 12970 ft 328 kts 201°
2026-04-28 03:06 24.53779 113.77103 12273 ft 312 kts 201°
2026-04-28 03:06 24.49869 113.75581 11614 ft 287 kts 201°
2026-04-28 03:07 24.46148 113.74136 11025 ft 281 kts 201°
2026-04-28 03:07 24.42529 113.72739 10750 ft 279 kts 201°
2026-04-28 03:07 24.38864 113.71324 10748 ft 279 kts 201°
2026-04-28 03:07 24.35202 113.69908 10747 ft 279 kts 201°
2026-04-28 03:08 24.31554 113.68497 10745 ft 280 kts 201°
2026-04-28 03:08 24.27876 113.67072 10741 ft 279 kts 201°
2026-04-28 03:08 24.24210 113.65652 10747 ft 280 kts 201°
2026-04-28 03:08 24.20545 113.64241 10751 ft 280 kts 201°
2026-04-28 03:09 24.16654 113.62736 10727 ft 304 kts 201°
2026-04-28 03:09 24.12687 113.61211 10759 ft 303 kts 201°
2026-04-28 03:09 24.08745 113.59695 10743 ft 303 kts 201°
2026-04-28 03:09 24.04770 113.58171 10747 ft 303 kts 201°
2026-04-28 03:10 24.00776 113.56636 10749 ft 305 kts 201°
2026-04-28 03:10 23.96771 113.55094 10752 ft 305 kts 201°
2026-04-28 03:10 23.92782 113.53554 10746 ft 305 kts 201°
2026-04-28 03:10 23.88770 113.52008 10747 ft 305 kts 201°
2026-04-28 03:11 23.84798 113.50482 10750 ft 305 kts 201°
2026-04-28 03:11 23.80792 113.48944 10735 ft 304 kts 201°
2026-04-28 03:11 23.76879 113.47447 10726 ft 291 kts 201°
2026-04-28 03:11 23.73232 113.46059 10738 ft 266 kts 201°
2026-04-28 03:12 23.69784 113.44745 10742 ft 262 kts 201°
2026-04-28 03:12 23.66337 113.43426 10746 ft 263 kts 201°
2026-04-28 03:12 23.62896 113.42106 10748 ft 262 kts 201°
2026-04-28 03:12 23.59457 113.40789 10744 ft 261 kts 201°
2026-04-28 03:13 23.56157 113.39529 10741 ft 261 kts 201°
2026-04-28 03:13 23.54438 113.38874 10748 ft 261 kts 201°
2026-04-28 03:13 23.52695 113.38321 10745 ft 262 kts 189°
2026-04-28 03:13 23.50898 113.38422 10746 ft 256 kts 175°
2026-04-28 03:14 23.49146 113.38702 10746 ft 253 kts 175°
2026-04-28 03:14 23.47432 113.38978 10746 ft 252 kts 175°
2026-04-28 03:14 23.45694 113.39255 10748 ft 253 kts 175°
2026-04-28 03:14 23.42720 113.39724 10746 ft 253 kts 175°
2026-04-28 03:15 23.39245 113.40272 10751 ft 253 kts 175°
2026-04-28 03:15 23.35765 113.40825 10748 ft 253 kts 175°
2026-04-28 03:15 23.32282 113.41379 10744 ft 252 kts 175°
2026-04-28 03:15 23.28799 113.41927 10744 ft 252 kts 175°
2026-04-28 03:16 23.25480 113.42458 10746 ft 233 kts 176°
2026-04-28 03:16 23.22393 113.42955 10749 ft 216 kts 175°
2026-04-28 03:16 23.19422 113.43420 10741 ft 219 kts 176°
2026-04-28 03:16 23.16405 113.43888 10726 ft 219 kts 176°
2026-04-28 03:17 23.13390 113.44364 10728 ft 219 kts 176°
2026-04-28 03:17 23.07349 113.45313 10730 ft 219 kts 176°
2026-04-28 03:17 23.04333 113.45788 10725 ft 219 kts 176°
2026-04-28 03:18 23.01318 113.46266 10730 ft 219 kts 176°
2026-04-28 03:18 22.98333 113.46732 10728 ft 219 kts 176°
2026-04-28 03:18 22.95314 113.47208 10728 ft 219 kts 176°
2026-04-28 03:18 22.92298 113.47683 10721 ft 219 kts 176°
2026-04-28 03:19 22.89217 113.48164 10111 ft 236 kts 175°
2026-04-28 03:19 22.86457 113.48645 9816 ft 262 kts 172°
2026-04-28 03:19 22.84679 113.49040 9689 ft 263 kts 171°
2026-04-28 03:19 22.82919 113.49451 9559 ft 259 kts 171°
2026-04-28 03:20 22.81224 113.49852 9423 ft 245 kts 171°
2026-04-28 03:20 22.79684 113.50215 9296 ft 231 kts 171°
2026-04-28 03:20 22.78159 113.50569 9169 ft 219 kts 172°
2026-04-28 03:20 22.76687 113.50904 9048 ft 215 kts 172°
2026-04-28 03:21 22.75230 113.51232 8916 ft 213 kts 172°
2026-04-28 03:21 22.73771 113.51558 8808 ft 213 kts 172°
2026-04-28 03:21 22.72325 113.51882 8662 ft 213 kts 172°
2026-04-28 03:21 22.70873 113.52208 8472 ft 212 kts 172°
2026-04-28 03:22 22.69459 113.52523 8260 ft 211 kts 172°
2026-04-28 03:22 22.67067 113.53057 7936 ft 214 kts 171°
2026-04-28 03:22 22.64148 113.53708 7678 ft 216 kts 171°
2026-04-28 03:22 22.61219 113.54369 7360 ft 210 kts 171°
2026-04-28 03:23 22.58408 113.54995 7182 ft 204 kts 171°
2026-04-28 03:23 22.55639 113.55609 6908 ft 205 kts 171°
2026-04-28 03:23 22.52857 113.56249 6510 ft 203 kts 168°
2026-04-28 03:23 22.50148 113.57100 6106 ft 205 kts 165°
2026-04-28 03:24 22.47475 113.57985 5675 ft 204 kts 165°
2026-04-28 03:24 22.44769 113.58877 5243 ft 199 kts 165°
2026-04-28 03:24 22.42152 113.59734 4848 ft 195 kts 164°
2026-04-28 03:24 22.39573 113.60574 4444 ft 193 kts 164°
2026-04-28 03:25 22.37002 113.61413 4047 ft 192 kts 164°
2026-04-28 03:25 22.34452 113.62236 3661 ft 191 kts 164°
2026-04-28 03:25 22.32937 113.62717 3422 ft 190 kts 163°
2026-04-28 03:25 22.31674 113.63117 3193 ft 189 kts 163°
2026-04-28 03:26 22.30400 113.63520 2891 ft 193 kts 163°
2026-04-28 03:26 22.29123 113.63856 2654 ft 184 kts 174°
2026-04-28 03:26 22.27896 113.63670 2419 ft 181 kts 198°
2026-04-28 03:26 22.26825 113.62978 2195 ft 178 kts 210°
2026-04-28 03:27 22.25844 113.62227 2052 ft 168 kts 211°
2026-04-28 03:27 22.24914 113.61514 1904 ft 159 kts 210°
2026-04-28 03:27 22.24041 113.60847 1771 ft 151 kts 210°
2026-04-28 03:27 22.23196 113.60205 1558 ft 147 kts 210°
2026-04-28 03:28 22.22439 113.59631 1396 ft 145 kts 210°
2026-04-28 03:28 22.21613 113.59007 1191 ft 146 kts 212°
2026-04-28 03:28 22.20797 113.58390 1001 ft 147 kts 212°
2026-04-28 03:28 22.19910 113.57817 897 ft 142 kts 194°
2026-04-28 03:29 22.18979 113.57723 772 ft 134 kts 166°
2026-04-28 03:29 22.18083 113.57950 657 ft 137 kts 160°
2026-04-28 03:29 22.17177 113.58276 382 ft 135 kts 156°
2026-04-28 03:29 22.16314 113.58608 172 ft 128 kts 154°
2026-04-28 03:30 22.15508 113.58944 30 ft 116 kts 156°
2026-04-28 03:30 22.14899 113.59172 28 ft 68 kts 163°
2026-04-28 03:30 22.14624 113.59264 28 ft 16 kts 169°
2026-04-28 03:30 22.14593 113.59193 28 ft 10 kts 255°
2026-04-28 03:31 22.14578 113.59122 28 ft 9 kts 268°
2026-04-28 03:31 22.14603 113.59087 28 ft 5 kts 311°
2026-04-28 03:31 22.14613 113.59084 28 ft 2 kts 346°
2026-04-28 03:31 22.14663 113.59066 28 ft 6 kts 341°
2026-04-28 03:32 22.14693 113.59055 28 ft 4 kts 339°
2026-04-28 03:32 22.14768 113.58978 29 ft 27 kts 308°
2026-04-28 03:32 22.14872 113.58801 29 ft 24 kts 304°
2026-04-28 03:32 22.14952 113.58673 29 ft 19 kts 303°
2026-04-28 03:33 22.15007 113.58578 29 ft 13 kts 302°
2026-04-28 03:33 22.15053 113.58502 29 ft 12 kts 303°
2026-04-28 03:33 22.15096 113.58431 29 ft 11 kts 303°
2026-04-28 03:33 22.15137 113.58364 29 ft 10 kts 303°
2026-04-28 03:34 22.15175 113.58302 29 ft 10 kts 303°
2026-04-28 03:34 22.15227 113.58221 29 ft 19 kts 303°
2026-04-28 03:34 22.15297 113.58110 29 ft 16 kts 303°
2026-04-28 03:34 22.15355 113.58016 29 ft 15 kts 303°
2026-04-28 03:35 22.15408 113.57929 29 ft 14 kts 306°
2026-04-28 03:35 22.15460 113.57849 29 ft 12 kts 304°
2026-04-28 03:35 22.15508 113.57774 29 ft 12 kts 304°
2026-04-28 03:35 22.15549 113.57707 29 ft 9 kts 304°
2026-04-28 03:36 22.15589 113.57655 29 ft 9 kts 320°
2026-04-28 03:36 22.15641 113.57631 29 ft 8 kts 347°
2026-04-28 03:36 22.15655 113.57627 29 ft 2 kts 348°
2026-04-28 03:36 22.15681 113.57622 29 ft 4 kts 347°
2026-04-28 03:37 22.15702 113.57614 29 ft 5 kts 333°
2026-04-28 03:37 22.15729 113.57585 29 ft 5 kts 303°
2026-04-28 03:37 22.15730 113.57584 29 ft 0 kts 303°
2026-04-28 03:37 22.15736 113.57574 29 ft 2 kts 301°
2026-04-28 03:38 22.15739 113.57568 29 ft 0 kts 301°
2026-04-28 03:38 22.15740 113.57567 29 ft 0 kts 301°